Graham, TX

10:02 PM CDT on March 27, 2017 (GMT -0500)
Graham

Weather History for KRPH - February, 2014

Change the Weather History Date:

Wednesday, February 5, 2014

  Actual Average (KMWL) Record (KMWL)
Temperature  
Mean Temperature 23 °F -  
Max Temperature 32 °F 55 °F 79 °F (2017)
Min Temperature 14 °F 34 °F 18 °F (2014)
Degree Days  
Heating Degree Days 42    
Moisture  
Dew Point 15 °F    
Average Humidity 70    
Maximum Humidity 80    
Minimum Humidity 59    
Precipitation  
Precipitation 0.00 in - - ()
Sea Level Pressure  
Sea Level Pressure 30.45 in    
Wind  
Wind Speed 15 mph (NNW)    
Max Wind Speed 22 mph    
Max Gust Speed 29 mph    
Visibility 10 miles    
Events Snow    
Averages and records for this station are not official NWS values.
T = Trace of Precipitation, MM = Missing Value Source: NWS Daily Summary

Daily Weather History Graph

Daily Weather History Graph

Search for Another Location

Airport or City:

Trip Planner

Search our weather history database for the weather conditions in past years. The results will help you decide how hot, cold, wet, or windy it might be!

Date:

Astronomy

Feb. 05, 2014 Rise Set
Actual Time 7:26 AM CST 6:10 PM CST
Civil Twilight 7:00 AM CST 6:35 PM CST
Nautical Twilight 6:31 AM CST 7:05 PM CST
Astronomical Twilight 6:02 AM CST 7:34 PM CST
Moon 11:04 AM CST (2/5) No Moon Set
Length of Visible Light 11h 35m
Length of Day
10h 43m
Waxing Crescent, 39% of the Moon is Illuminated
Feb 5
Waxing Crescent
Feb 6
First Quarter
Feb 14
Full
Feb 22
Last Quarter
Mar 1
New

Hourly Weather History & Observations

Time (CST) Temp. Windchill Dew Point Humidity Pressure Visibility Wind Dir Wind Speed Gust Speed Precip Events Conditions
12:15 AM 32.0 °F 23.0 °F 26.2 °F 79% 30.18 in 10.0 mi NW 11.5 mph 18.4 mph N/A   Clear
12:35 AM 31.6 °F 24.4 °F 26.1 °F 80% 30.19 in 10.0 mi NNW 8.1 mph - N/A   Clear
12:55 AM 31.1 °F 23.1 °F 25.7 °F 80% 30.20 in 10.0 mi NW 9.2 mph - N/A   Clear
1:15 AM 31.1 °F 20.1 °F 24.8 °F 77% 30.21 in 10.0 mi NNW 16.1 mph - N/A   Scattered Clouds
1:35 AM 30.9 °F 20.7 °F 24.6 °F 77% 30.22 in 10.0 mi NW 13.8 mph 21.9 mph N/A   Scattered Clouds
1:55 AM 31.5 °F 20.9 °F 24.8 °F 76% 30.23 in 10.0 mi NNW 15.0 mph 23.0 mph N/A   Overcast
2:15 AM 31.1 °F 19.7 °F 24.3 °F 76% 30.25 in 10.0 mi NW 17.3 mph 21.9 mph N/A   Overcast
2:35 AM 30.7 °F 19.6 °F 23.7 °F 75% 30.26 in 10.0 mi NNW 16.1 mph 23.0 mph N/A   Overcast
2:55 AM 29.3 °F 17.7 °F 22.3 °F 75% 30.28 in 10.0 mi NNW 16.1 mph - N/A   Overcast
3:15 AM 28.4 °F 16.2 °F 21.0 °F 74% 30.30 in 10.0 mi NNW 17.3 mph 26.5 mph N/A   Overcast
3:35 AM 28.0 °F 16.5 °F 20.5 °F 73% 30.31 in 10.0 mi NNW 15.0 mph 23.0 mph N/A   Overcast
3:55 AM 27.7 °F 16.1 °F 20.7 °F 75% 30.33 in 10.0 mi NNW 15.0 mph 20.7 mph N/A   Overcast
4:15 AM 27.5 °F 15.0 °F 20.3 °F 74% 30.33 in 10.0 mi NNW 17.3 mph 25.3 mph N/A   Overcast
4:35 AM 27.0 °F 14.7 °F 20.1 °F 75% 30.34 in 10.0 mi NNW 16.1 mph 20.7 mph N/A   Overcast
4:55 AM 26.6 °F 12.7 °F 19.6 °F 75% 30.35 in 10.0 mi NNW 20.7 mph 24.2 mph N/A   Overcast
5:15 AM 25.7 °F 11.2 °F 18.9 °F 75% 30.36 in 10.0 mi NNW 21.9 mph 27.6 mph N/A   Overcast
5:35 AM 25.5 °F 11.3 °F 18.1 °F 74% 30.36 in 10.0 mi North 20.7 mph 27.6 mph N/A   Overcast
5:55 AM 25.7 °F 12.3 °F 18.7 °F 75% 30.38 in 10.0 mi NNW 18.4 mph 25.3 mph N/A   Overcast
6:15 AM 24.6 °F 10.1 °F 18.1 °F 76% 30.39 in 10.0 mi NNW 20.7 mph 26.5 mph N/A   Overcast
6:35 AM 23.7 °F 10.1 °F 17.2 °F 76% 30.41 in 10.0 mi NNW 17.3 mph 25.3 mph N/A   Overcast
6:55 AM 23.0 °F 8.0 °F 16.3 °F 76% 30.42 in 10.0 mi NNW 20.7 mph 28.8 mph N/A   Overcast
7:15 AM 21.2 °F 7.8 °F 14.9 °F 77% 30.43 in 10.0 mi NNW 15.0 mph 27.6 mph N/A   Overcast
7:35 AM 19.9 °F 4.8 °F 13.8 °F 77% 30.45 in 10.0 mi NNW 18.4 mph 24.2 mph N/A   Mostly Cloudy
7:55 AM 19.0 °F 4.5 °F 12.9 °F 77% 30.46 in 10.0 mi NNW 16.1 mph 21.9 mph N/A   Overcast
8:15 AM 19.0 °F 4.5 °F 12.7 °F 76% 30.48 in 10.0 mi NNW 16.1 mph 24.2 mph N/A   Overcast
8:35 AM 18.5 °F 3.8 °F 12.0 °F 76% 30.49 in 10.0 mi NNW 16.1 mph 20.7 mph N/A   Overcast
8:55 AM 18.7 °F 4.6 °F 12.2 °F 76% 30.50 in 10.0 mi NNW 15.0 mph 18.4 mph N/A Snow Light Snow
9:15 AM 19.2 °F 7.0 °F 12.4 °F 75% 30.51 in 7.0 mi NNW 11.5 mph - N/A Snow Light Snow
9:35 AM 19.6 °F 5.7 °F 11.3 °F 70% 30.52 in 10.0 mi NNW 15.0 mph 25.3 mph N/A   Mostly Cloudy
9:55 AM 20.1 °F 6.9 °F 11.5 °F 69% 30.54 in 10.0 mi North 13.8 mph - N/A   Scattered Clouds
10:15 AM 20.8 °F 9.0 °F 11.1 °F 66% 30.55 in 10.0 mi NNW 11.5 mph 19.6 mph N/A   Scattered Clouds
10:35 AM 21.9 °F 9.2 °F 11.7 °F 65% 30.56 in 10.0 mi NNW 13.8 mph 19.6 mph N/A   Scattered Clouds
10:55 AM 21.7 °F 9.6 °F 11.3 °F 64% 30.57 in 10.0 mi NW 12.7 mph 19.6 mph N/A   Scattered Clouds
11:15 AM 22.5 °F 9.4 °F 11.8 °F 64% 30.56 in 10.0 mi NNW 15.0 mph 18.4 mph N/A   Scattered Clouds
11:35 AM 22.8 °F 10.9 °F 11.7 °F 62% 30.56 in 10.0 mi North 12.7 mph - N/A   Scattered Clouds
11:55 AM 24.1 °F 12.5 °F 12.6 °F 62% 30.55 in 10.0 mi NNW 12.7 mph 23.0 mph N/A   Scattered Clouds
12:15 PM 24.1 °F 12.0 °F 12.6 °F 62% 30.55 in 10.0 mi North 13.8 mph 21.9 mph N/A   Scattered Clouds
12:35 PM 23.9 °F 11.7 °F 12.4 °F 62% 30.54 in 10.0 mi NNW 13.8 mph 23.0 mph N/A   Scattered Clouds
12:55 PM 24.1 °F 12.0 °F 12.7 °F 62% 30.54 in 10.0 mi NNW 13.8 mph 19.6 mph N/A   Scattered Clouds
1:15 PM 25.3 °F 13.1 °F 13.3 °F 60% 30.52 in 10.0 mi NNW 15.0 mph - N/A   Scattered Clouds
1:35 PM 25.0 °F 14.2 °F 12.7 °F 60% 30.51 in 10.0 mi North 11.5 mph 20.7 mph N/A   Scattered Clouds
1:55 PM 24.8 °F 11.1 °F 13.3 °F 62% 30.50 in 10.0 mi NNW 18.4 mph 23.0 mph N/A   Scattered Clouds
2:15 PM 25.5 °F 13.8 °F 13.6 °F 61% 30.49 in 10.0 mi NNW 13.8 mph 21.9 mph N/A   Scattered Clouds
2:35 PM 26.2 °F 13.8 °F 13.6 °F 59% 30.49 in 10.0 mi NNW 16.1 mph 23.0 mph N/A   Scattered Clouds
2:55 PM 26.6 °F 14.3 °F 13.8 °F 59% 30.48 in 10.0 mi North 16.1 mph 28.8 mph N/A   Clear
3:15 PM 26.6 °F 14.3 °F 13.8 °F 59% 30.48 in 10.0 mi North 16.1 mph 24.2 mph N/A   Clear
3:35 PM 25.5 °F 13.3 °F 13.6 °F 61% 30.47 in 10.0 mi North 15.0 mph 25.3 mph N/A   Clear
3:55 PM 25.3 °F 13.1 °F 13.6 °F 61% 30.47 in 10.0 mi North 15.0 mph 19.6 mph N/A   Scattered Clouds
4:15 PM 25.2 °F 12.9 °F 13.5 °F 61% 30.48 in 10.0 mi North 15.0 mph 21.9 mph N/A   Clear
4:35 PM 24.4 °F 11.5 °F 13.3 °F 63% 30.47 in 10.0 mi North 16.1 mph 21.9 mph N/A   Clear
4:55 PM 23.7 °F 11.5 °F 12.9 °F 63% 30.48 in 10.0 mi North 13.8 mph 20.7 mph N/A   Clear
5:15 PM 23.7 °F 10.5 °F 13.3 °F 64% 30.48 in 10.0 mi North 16.1 mph 20.7 mph N/A   Clear
5:35 PM 23.0 °F 11.7 °F 13.1 °F 66% 30.49 in 10.0 mi North 11.5 mph 23.0 mph N/A   Scattered Clouds
5:55 PM 22.6 °F 9.2 °F 12.7 °F 66% 30.48 in 10.0 mi North 16.1 mph - N/A   Clear
6:15 PM 22.3 °F 8.2 °F 12.9 °F 67% 30.49 in 10.0 mi NNW 17.3 mph 23.0 mph N/A   Clear
6:35 PM 21.9 °F 9.8 °F 12.9 °F 68% 30.50 in 10.0 mi North 12.7 mph - N/A   Clear
6:55 PM 21.0 °F 6.6 °F 12.2 °F 69% 30.49 in 10.0 mi North 17.3 mph 23.0 mph N/A   Clear
7:15 PM 20.3 °F 7.2 °F 11.8 °F 70% 30.50 in 10.0 mi NNW 13.8 mph 21.9 mph N/A   Clear
7:35 PM 20.1 °F 6.4 °F 11.7 °F 70% 30.51 in 10.0 mi North 15.0 mph 20.7 mph N/A   Clear
7:55 PM 19.2 °F 3.4 °F 10.4 °F 69% 30.50 in 10.0 mi North 19.6 mph - N/A   Clear
8:15 PM 19.0 °F 4.0 °F 10.4 °F 69% 30.50 in 10.0 mi North 17.3 mph 23.0 mph N/A   Clear
8:35 PM 18.9 °F 3.8 °F 10.6 °F 70% 30.50 in 10.0 mi North 17.3 mph 23.0 mph N/A   Clear
8:55 PM 18.5 °F 4.3 °F 10.4 °F 71% 30.51 in 10.0 mi North 15.0 mph 21.9 mph N/A   Clear
9:15 PM 18.3 °F 2.6 °F 10.4 °F 71% 30.51 in 10.0 mi NNW 18.4 mph - N/A   Clear
9:35 PM 17.6 °F 5.7 °F 10.0 °F 72% 30.53 in 10.0 mi North 10.4 mph 24.2 mph N/A   Scattered Clouds
9:55 PM 17.2 °F 1.7 °F 9.5 °F 72% 30.53 in 10.0 mi North 17.3 mph - N/A   Scattered Clouds
10:35 PM 16.3 °F 0.5 °F 9.0 °F 73% 30.53 in 10.0 mi North 17.3 mph 20.7 mph N/A   Clear
10:55 PM 15.8 °F 0.3 °F 8.6 °F 73% 30.53 in 10.0 mi North 16.1 mph - N/A   Scattered Clouds
11:15 PM 15.4 °F 0.4 °F 8.1 °F 73% 30.54 in 10.0 mi North 15.0 mph 19.6 mph N/A   Mostly Cloudy
11:35 PM 14.9 °F 0.9 °F 7.9 °F 74% 30.53 in 10.0 mi North 12.7 mph - N/A   Scattered Clouds
11:55 PM 14.9 °F -0.3 °F 7.7 °F 73% 30.53 in 10.0 mi North 15.0 mph - N/A   Scattered Clouds